CW4740 Weather Reports


Display with metric or nautical units.
time (UTC)temp
F
wind
direction
speed
MPH
gust
MPH
rain 1hr
in
rain 24hr
in
rain mn
in
humidity
%
barometer
mb
20260506000142 78 82 4.0 13.0 0.00 0.04 0.03 81 1015.6
20260505235629 79 75 7.0 13.0 0.00 0.04 0.03 81 1015.5
20260505235146 79 57 5.0 11.0 0.00 0.04 0.03 81 1015.3
20260505234703 79 69 5.0 13.0 0.00 0.04 0.03 80 1015.2
20260505234159 79 83 6.0 13.0 0.00 0.04 0.03 79 1015.1
20260505233655 79 86 5.0 13.0 0.00 0.04 0.03 79 1015.2
20260505233130 79 26 4.0 11.0 0.00 0.04 0.03 79 1015.1
20260505232707 79 55 4.0 11.0 0.00 0.04 0.03 79 1015.1
20260505232144 79 132 6.0 11.0 0.00 0.04 0.03 79 1015.2
20260505231742 79 33 4.0 15.0 0.00 0.04 0.03 79 1015.0
20260505231212 79 42 5.0 12.0 0.00 0.04 0.03 79 1015.1
20260505231129 79 42 5.0 12.0 0.00 0.04 0.03 79 1015.1
20260505230632 79 44 4.0 12.0 0.00 0.04 0.03 80 1015.0
20260505230203 79 27 5.0 11.0 0.00 0.04 0.03 79 1015.0
20260505225711 79 12 5.0 11.0 0.00 0.04 0.03 79 1015.1
20260505225127 79 76 5.0 11.0 0.00 0.04 0.03 80 1015.1
20260505224644 79 11 3.0 13.0 0.00 0.04 0.03 79 1015.0
20260505224200 80 21 4.0 13.0 0.00 0.04 0.03 79 1015.0
20260505223714 80 69 3.0 12.0 0.00 0.04 0.03 79 1015.0
20260505223632 80 69 3.0 12.0 0.00 0.04 0.03 79 1015.0
20260505223129 80 31 6.0 11.0 0.00 0.04 0.03 79 1014.9
20260505222706 80 5 4.0 11.0 0.00 0.04 0.03 79 1014.9
20260505222242 80 42 3.0 10.0 0.00 0.04 0.03 80 1014.8
20260505222200 80 42 3.0 10.0 0.00 0.04 0.03 80 1014.8
20260505221737 80 80 6.0 13.0 0.00 0.04 0.03 79 1014.9
20260505221634 80 80 6.0 13.0 0.00 0.04 0.03 79 1014.9
20260505221131 80 29 5.0 14.0 0.00 0.04 0.03 79 1014.9
20260505220649 80 58 7.0 14.0 0.00 0.04 0.03 79 1015.0
20260505220225 81 89 7.0 14.0 0.00 0.04 0.03 79 1014.8
20260505220143 81 89 7.0 14.0 0.00 0.04 0.03 79 1014.8
20260505215631 81 23 5.0 12.0 0.00 0.04 0.03 78 1014.9
20260505215228 81 76 6.0 13.0 0.00 0.04 0.03 77 1014.9
20260505214744 81 24 3.0 13.0 0.00 0.04 0.03 78 1014.7
20260505214138 81 71 6.0 14.0 0.00 0.04 0.03 78 1014.6
20260505213636 81 11 5.0 14.0 0.00 0.04 0.03 78 1014.6
20260505213214 81 63 5.0 13.0 0.00 0.04 0.03 78 1014.6
20260505212630 81 44 6.0 13.0 0.00 0.04 0.03 77 1014.5
20260505212147 81 71 8.0 13.0 0.00 0.04 0.03 77 1014.3
20260505211644 81 17 4.0 13.0 0.00 0.04 0.03 77 1014.2
20260505211142 81 103 4.0 13.0 0.00 0.04 0.03 77 1014.2
20260505210740 82 84 4.0 13.0 0.00 0.04 0.03 77 1014.4
20260505210134 82 112 6.0 13.0 0.00 0.04 0.03 76 1014.4
20260505205643 82 104 5.0 14.0 0.00 0.04 0.03 77 1014.5
20260505205201 82 51 5.0 14.0 0.00 0.04 0.03 76 1014.5
20260505204638 82 57 3.0 13.0 0.00 0.04 0.03 78 1014.5
20260505204136 81 46 8.0 13.0 0.00 0.04 0.03 77 1014.5
20260505203634 81 96 5.0 15.0 0.00 0.04 0.03 78 1014.5
20260505203133 81 97 7.0 15.0 0.00 0.04 0.03 78 1014.7
20260505202653 81 71 7.0 15.0 0.00 0.04 0.03 77 1014.6
20260505202130 82 89 8.0 15.0 0.00 0.04 0.03 76 1014.7
20260505201728 82 55 5.0 15.0 0.00 0.04 0.03 77 1014.7
20260505201645 82 55 5.0 15.0 0.00 0.04 0.03 77 1014.7
20260505201201 82 103 6.0 13.0 0.00 0.04 0.03 77 1014.7
20260505200636 82 34 4.0 12.0 0.00 0.04 0.03 77 1014.8
20260505200231 82 85 6.0 12.0 0.00 0.04 0.03 77 1014.9
20260505200149 82 85 6.0 12.0 0.00 0.04 0.03 77 1014.9
20260505195714 82 85 5.0 12.0 0.00 0.04 0.03 76 1014.9
20260505195129 82 105 5.0 15.0 0.00 0.04 0.03 77 1015.0
20260505194726 82 90 6.0 15.0 0.00 0.04 0.03 76 1015.0
20260505194202 82 109 4.0 12.0 0.00 0.04 0.03 77 1015.1
20260505193639 81 56 4.0 13.0 0.00 0.04 0.03 77 1015.1
20260505193217 82 76 7.0 14.0 0.00 0.04 0.03 77 1015.3
20260505192632 82 74 7.0 14.0 0.00 0.04 0.03 78 1015.3
20260505192151 81 91 6.0 14.0 0.00 0.04 0.03 78 1015.4
20260505191706 81 90 7.0 15.0 0.00 0.04 0.03 77 1015.3
20260505191142 82 95 7.0 15.0 0.00 0.04 0.03 78 1015.2
20260505190657 81 87 8.0 14.0 0.00 0.04 0.03 79 1015.3
20260505190132 81 15 6.0 15.0 0.00 0.04 0.03 78 1015.4
20260505185718 81 82 6.0 14.0 0.00 0.04 0.03 78 1015.3
20260505185636 81 82 6.0 14.0 0.00 0.04 0.03 78 1015.3
20260505185212 81 62 7.0 14.0 0.00 0.04 0.03 78 1015.5
20260505184627 81 102 5.0 12.0 0.00 0.04 0.03 79 1015.5
20260505184221 81 88 7.0 12.0 0.00 0.04 0.03 79 1015.4
20260505183654 81 101 6.0 13.0 0.00 0.04 0.03 80 1015.4
20260505183149 81 132 5.0 13.0 0.00 0.04 0.03 80 1015.4
20260505182645 81 84 5.0 14.0 0.00 0.04 0.03 80 1015.4
20260505182143 81 83 8.0 14.0 0.00 0.04 0.03 79 1015.5
20260505181700 81 86 5.0 17.0 0.00 0.04 0.03 81 1015.5
20260505181140 81 89 7.0 17.0 0.00 0.04 0.03 79 1015.5
20260505180637 82 134 6.0 13.0 0.00 0.04 0.03 80 1015.7
20260505180136 81 96 6.0 15.0 0.00 0.04 0.03 80 1015.7
20260505175705 81 83 6.0 15.0 0.00 0.04 0.03 80 1015.7
20260505175221 81 76 7.0 16.0 0.00 0.04 0.03 79 1015.9
20260505175139 81 76 7.0 16.0 0.00 0.04 0.03 79 1015.9
20260505174657 81 65 8.0 16.0 0.00 0.04 0.03 79 1015.9
20260505174134 81 35 8.0 16.0 0.00 0.04 0.03 79 1015.9
20260505173630 81 71 7.0 15.0 0.00 0.04 0.03 80 1015.9
20260505173208 81 105 7.0 15.0 0.00 0.04 0.03 79 1015.8
20260505172644 82 80 8.0 13.0 0.00 0.04 0.03 79 1015.9
20260505172142 82 127 7.0 12.0 0.00 0.04 0.03 79 1015.9
20260505171719 82 23 6.0 14.0 0.00 0.04 0.03 80 1016.1
20260505171133 82 82 4.0 14.0 0.00 0.04 0.03 80 1016.0
20260505170647 82 75 5.0 13.0 0.00 0.04 0.03 79 1016.0
20260505170224 82 336 6.0 13.0 0.00 0.04 0.03 80 1016.1
20260505165629 82 51 6.0 13.0 0.00 0.04 0.03 81 1016.0
20260505165223 82 101 6.0 15.0 0.00 0.04 0.03 80 1016.1
20260505164641 82 119 7.0 15.0 0.00 0.04 0.03 79 1016.1
20260505164235 82 90 5.0 11.0 0.00 0.04 0.03 78 1016.1
20260505164153 82 90 5.0 11.0 0.00 0.04 0.03 78 1016.1
20260505163630 82 18 7.0 12.0 0.00 0.04 0.03 77 1016.1
20260505163132 82 129 5.0 12.0 0.00 0.04 0.03 78 1016.0
20260505162725 82 86 6.0 12.0 0.00 0.04 0.03 77 1016.1
20260505162140 82 103 5.0 11.0 0.00 0.04 0.03 78 1016.1
20260505161719 82 355 4.0 9.0 0.00 0.04 0.03 78 1016.1
20260505161216 82 109 5.0 10.0 0.00 0.04 0.03 77 1016.1
20260505160751 82 138 4.0 11.0 0.00 0.04 0.03 78 1016.0
20260505160226 82 69 6.0 11.0 0.00 0.05 0.03 77 1016.1
20260505153156 82 96 7.0 13.0 0.00 0.05 0.03 77 1016.0
20260505152633 82 9 4.0 13.0 0.00 0.05 0.03 77 1016.1
20260505152130 82 123 3.0 12.0 0.00 0.05 0.03 77 1016.0
20260505151727 82 13 3.0 10.0 0.00 0.05 0.03 78 1015.8
20260505151241 81 103 4.0 10.0 0.00 0.05 0.03 79 1015.9
20260505151138 81 103 4.0 10.0 0.00 0.05 0.03 79 1015.9
20260505150654 81 55 3.0 12.0 0.00 0.05 0.03 79 1016.0
20260505150131 81 84 4.0 12.0 0.00 0.11 0.03 80 1015.9
20260505140201 80 92 4.0 15.0 0.00 0.15 0.03 82 1015.5
20260505130224 79 58 4.0 12.0 0.00 0.15 0.03 84 1015.4
20260505124644 79 57 6.0 12.0 0.00 0.15 0.03 83 1015.3
20260505124202 79 82 5.0 12.0 0.00 0.15 0.03 84 1015.2
20260505123638 78 101 4.0 12.0 0.00 0.15 0.03 83 1015.0
20260505123135 78 79 7.0 12.0 0.00 0.15 0.03 83 1014.8
20260505122733 78 73 5.0 11.0 0.00 0.15 0.03 84 1014.8
20260505122227 78 88 4.0 10.0 0.00 0.15 0.03 84 1014.9
20260505121643 78 99 5.0 10.0 0.00 0.15 0.03 84 1014.8
20260505121142 78 109 3.0 10.0 0.00 0.15 0.03 85 1014.5
20260505120659 78 90 4.0 8.0 0.00 0.15 0.03 86 1014.6
20260505120136 77 91 4.0 7.0 0.00 0.15 0.03 86 1014.7
20260505115646 77 92 3.0 6.0 0.00 0.15 0.03 87 1014.5
20260505115143 77 92 2.0 9.0 0.00 0.15 0.03 87 1014.6
20260505114641 76 92 4.0 9.0 0.00 0.15 0.03 87 1014.7
20260505114144 76 88 3.0 8.0 0.00 0.15 0.03 87 1014.5
20260505113718 76 85 4.0 8.0 0.00 0.15 0.03 88 1014.6
20260505113138 76 80 3.0 8.0 0.00 0.15 0.03 88 1014.6
20260505112712 76 81 2.0 8.0 0.00 0.15 0.03 89 1014.5
20260505112133 76 81 2.0 9.0 0.00 0.15 0.03 89 1014.3
20260505111631 75 81 3.0 9.0 0.00 0.15 0.03 89 1014.4
20260505111245 75 80 3.0 6.0 0.00 0.15 0.03 89 1014.4
20260505110638 75 81 3.0 6.0 0.00 0.15 0.03 90 1014.3
20260505110154 75 81 2.0 6.0 0.00 0.21 0.03 90 1014.2
20260505102152 75 82 3.0 10.0 0.00 0.21 0.03 90 1014.0
20260505101630 75 86 4.0 10.0 0.00 0.21 0.03 90 1013.8
20260505101208 75 87 3.0 8.0 0.00 0.21 0.03 91 1013.8
20260505100705 75 88 5.0 8.0 0.00 0.21 0.03 91 1014.0
20260505100139 74 88 3.0 6.0 0.00 0.23 0.03 91 1013.7
20260505095645 74 88 2.0 6.0 0.00 0.23 0.03 91 1013.6
20260505095142 74 88 3.0 8.0 0.00 0.23 0.03 90 1013.7
20260505094639 74 88 2.0 8.0 0.00 0.23 0.03 91 1013.5
20260505094153 74 88 2.0 8.0 0.00 0.23 0.03 91 1013.6
20260505093629 74 88 3.0 8.0 0.00 0.23 0.03 91 1013.3
20260505093146 74 88 1.0 8.0 0.00 0.23 0.03 91 1013.3
20260505092723 74 88 3.0 9.0 0.00 0.23 0.03 92 1013.3
20260505092238 74 89 2.0 8.0 0.00 0.23 0.03 92 1013.4
20260505091633 74 90 4.0 9.0 0.00 0.23 0.03 92 1013.4
20260505091131 74 90 3.0 9.0 0.00 0.23 0.03 92 1013.4
20260505090748 74 90 3.0 8.0 0.00 0.23 0.03 92 1013.4
20260505090706 74 90 3.0 8.0 0.00 0.23 0.03 92 1013.4
20260505090142 74 90 3.0 8.0 0.00 0.24 0.03 92 1013.4
20260505085729 74 91 3.0 9.0 0.00 0.24 0.03 92 1013.3
20260505085244 74 93 2.0 9.0 0.00 0.24 0.03 92 1013.1
20260505084637 74 93 3.0 8.0 0.00 0.24 0.03 92 1013.3
20260505084135 74 93 3.0 8.0 0.00 0.24 0.03 92 1013.2
20260505083653 74 94 4.0 9.0 0.01 0.24 0.03 92 1013.2
20260505083130 74 88 4.0 8.0 0.02 0.24 0.03 92 1013.3
20260505082727 74 82 5.0 10.0 0.03 0.24 0.03 93 1013.2
20260505082143 74 92 5.0 10.0 0.03 0.24 0.03 92 1013.2
20260505081739 74 87 4.0 9.0 0.03 0.24 0.03 93 1013.4
20260505081636 74 87 4.0 9.0 0.03 0.24 0.03 93 1013.4
20260505081134 74 77 4.0 10.0 0.03 0.24 0.03 93 1013.4
20260505080650 74 21 3.0 10.0 0.03 0.24 0.03 92 1013.2
20260505080146 74 74 3.0 9.0 0.03 0.26 0.03 92 1013.2
20260505075636 74 55 4.0 12.0 0.03 0.26 0.03 92 1013.4
20260505075213 75 84 4.0 12.0 0.03 0.26 0.03 92 1013.4
20260505074628 75 78 1.0 11.0 0.03 0.26 0.03 92 1013.5
20260505074206 75 96 3.0 11.0 0.03 0.26 0.03 91 1013.6
20260505073742 75 98 3.0 6.0 0.02 0.25 0.02 91 1013.7
20260505073659 75 98 3.0 6.0 0.02 0.25 0.02 91 1013.7
20260505073135 75 96 3.0 6.0 0.01 0.24 0.01 91 1013.8
20260505072633 75 91 3.0 8.0 0.00 0.23 0.00 90 1013.7
20260505072131 75 30 3.0 11.0 0.00 0.23 0.00 90 1013.7
20260505071728 75 68 4.0 12.0 0.00 0.23 0.00 90 1013.7
20260505071204 75 38 5.0 12.0 0.00 0.23 0.00 90 1013.7
20260505070736 75 15 4.0 9.0 0.00 0.23 0.00 90 1013.8
20260505070633 75 15 4.0 9.0 0.00 0.23 0.00 90 1013.8
20260505070135 75 77 3.0 11.0 0.00 0.23 0.00 90 1013.8
20260505065700 75 53 4.0 11.0 0.00 0.23 0.00 90 1013.8
20260505065157 75 74 4.0 11.0 0.00 0.23 0.00 90 1013.7
20260505064653 75 74 5.0 11.0 0.00 0.23 0.00 90 1013.7
20260505064208 75 67 5.0 11.0 0.00 0.23 0.00 90 1013.8
20260505063704 74 113 3.0 11.0 0.00 0.23 0.00 90 1013.9
20260505063200 74 65 4.0 11.0 0.00 0.23 0.00 90 1014.1
20260505062635 74 97 4.0 8.0 0.00 0.23 0.00 90 1014.2
20260505062151 74 62 1.0 6.0 0.00 0.23 0.00 90 1014.3
20260505061708 74 19 2.0 10.0 0.00 0.23 0.00 90 1014.2
20260505061144 74 46 4.0 10.0 0.00 0.23 0.00 90 1014.3
20260505060702 74 38 3.0 9.0 0.00 0.23 0.00 90 1014.3
20260505060139 74 24 4.0 9.0 0.00 0.24 0.00 90 1014.3
20260505055705 74 66 2.0 9.0 0.00 0.24 0.00 90 1014.2
20260505055202 74 84 3.0 9.0 0.00 0.24 0.00 90 1014.2
20260505054700 74 60 4.0 10.0 0.00 0.24 0.00 90 1014.3
20260505054157 74 83 5.0 10.0 0.00 0.24 0.00 90 1014.3
20260505053654 74 57 3.0 7.0 0.00 0.24 0.00 90 1014.5
20260505053251 74 54 3.0 7.0 0.00 0.24 0.00 90 1014.6
20260505053208 74 54 3.0 7.0 0.00 0.24 0.00 90 1014.6
20260505052725 74 63 3.0 10.0 0.00 0.24 0.00 90 1014.7
20260505052200 74 51 5.0 11.0 0.00 0.24 0.00 90 1014.8
20260505051636 74 99 5.0 11.0 0.00 0.24 0.00 90 1014.8
20260505051132 74 99 5.0 9.0 0.00 0.24 0.00 90 1014.9
20260505050629 74 94 5.0 12.0 0.00 0.24 0.00 90 1014.9
20260505050246 74 82 5.0 14.0 0.00 0.24 0.00 90 1015.0
20260505041632 75 77 7.0 14.0 0.01 0.24 0.00 91 1015.2
20260505041130 75 113 9.0 14.0 0.01 0.24 0.00 91 1015.2
20260505040708 74 108 8.0 15.0 0.01 0.24 0.00 91 1015.3
20260505040226 74 121 5.0 15.0 0.01 0.24 0.24 91 1015.3
20260505040143 74 121 5.0 15.0 0.01 0.24 0.24 91 1015.3
20260505035630 75 98 6.0 14.0 0.01 0.24 0.24 91 1015.3
20260505035206 75 91 9.0 14.0 0.01 0.24 0.24 91 1015.3
20260505034641 75 117 7.0 13.0 0.01 0.24 0.24 90 1015.3
20260505034138 75 102 5.0 13.0 0.01 0.24 0.24 90 1015.4
20260505033634 76 92 7.0 13.0 0.01 0.24 0.24 89 1015.4
20260505033150 76 87 4.0 11.0 0.00 0.23 0.23 88 1015.4
20260505032746 76 90 5.0 12.0 0.00 0.23 0.23 86 1015.2
20260505032200 76 82 7.0 12.0 0.00 0.23 0.23 85 1015.2
20260505031735 76 109 6.0 12.0 0.00 0.23 0.23 85 1015.1
20260505031653 76 109 6.0 12.0 0.00 0.23 0.23 85 1015.1
20260505031147 76 125 5.0 11.0 0.00 0.23 0.23 85 1015.0
20260505030643 76 100 8.0 11.0 0.00 0.23 0.23 85 1015.0
20260505030140 76 101 6.0 10.0 0.00 0.23 0.23 85 1015.2
20260505025649 77 109 5.0 10.0 0.00 0.23 0.23 84 1015.1
20260505025227 77 113 6.0 10.0 0.00 0.23 0.23 83 1015.1
20260505024702 77 86 4.0 11.0 0.00 0.23 0.23 83 1015.1
20260505024158 77 90 5.0 11.0 0.00 0.23 0.23 81 1015.1
20260505023635 77 102 5.0 11.0 0.00 0.23 0.23 82 1015.1
20260505023133 77 87 6.0 10.0 0.00 0.23 0.23 82 1015.2
20260505022631 77 99 6.0 10.0 0.00 0.23 0.23 81 1015.3
20260505022229 77 103 5.0 14.0 0.00 0.23 0.23 81 1015.0
20260505021643 77 92 6.0 14.0 0.00 0.23 0.23 81 1015.1
20260505021200 77 107 6.0 12.0 0.00 0.23 0.23 81 1015.1
20260505020657 77 79 4.0 13.0 0.00 0.23 0.23 81 1015.1
20260505020134 77 82 6.0 13.0 0.00 0.23 0.23 81 1015.3
20260505015701 77 140 5.0 12.0 0.00 0.23 0.23 81 1015.3
20260505015137 77 95 5.0 15.0 0.00 0.23 0.23 81 1015.2
20260505014635 77 91 5.0 15.0 0.00 0.23 0.23 80 1015.2
20260505014133 77 119 6.0 11.0 0.00 0.23 0.23 80 1015.1
20260505013649 77 103 6.0 13.0 0.00 0.23 0.23 80 1015.1
20260505013205 77 96 6.0 13.0 0.00 0.23 0.23 80 1015.1
20260505012641 77 119 7.0 15.0 0.00 0.23 0.23 81 1015.0
20260505012239 77 78 6.0 13.0 0.00 0.23 0.23 80 1014.9
20260505011653 77 86 7.0 13.0 0.00 0.23 0.23 81 1014.8
20260505011211 77 90 7.0 13.0 0.00 0.23 0.23 81 1014.8
20260505010727 77 84 6.0 13.0 0.00 0.23 0.23 81 1014.7
20260505010144 77 78 4.0 12.0 0.00 0.23 0.23 81 1014.8
20260505005632 77 78 5.0 12.0 0.00 0.23 0.23 81 1014.8
20260505005129 77 81 6.0 15.0 0.00 0.23 0.23 80 1014.9
20260505004708 77 103 6.0 15.0 0.00 0.23 0.23 80 1014.8
20260505004145 77 59 8.0 13.0 0.00 0.23 0.23 80 1014.7
20260505003640 77 81 5.0 13.0 0.00 0.23 0.23 80 1014.6
20260505003215 77 106 6.0 16.0 0.00 0.23 0.23 79 1014.6
20260505002630 77 92 6.0 16.0 0.00 0.23 0.23 80 1014.6
20260505002128 77 76 7.0 17.0 0.00 0.23 0.23 80 1014.6
20260505001705 77 66 5.0 17.0 0.00 0.23 0.23 80 1014.5
20260505001222 77 76 7.0 12.0 0.00 0.23 0.23 79 1014.5
20260505001140 77 76 7.0 12.0 0.00 0.23 0.23 79 1014.5
20260505000658 77 63 7.0 12.0 0.00 0.23 0.23 79 1014.6